Location: Shepherdstown, WV
(39.4326°N, 77.8042°W)
Time: 16:34:23
(UTC-04:00)

Tiros 1 despin weight - Pass Details

Date: 05 August 2021
Orbit: 593 x 641 km, 48.2° (Epoch: 18 September)

Event Time Altitude Azimuth Distance (km) Brightness Sun altitude
Rises 14:27:19 0° 273° (W) 2,922 ? 62.7°
Reaches altitude 10° 14:29:50 10° 283° (WNW) 2,021 ? 62.4°
Maximum altitude 14:34:03 32° 347° (NNW) 1,087 ? 61.8°
Drops below altitude 10° 14:38:16 10° 52° (NE) 2,032 ? 61.3°
Sets 14:40:49 0° 62° (ENE) 2,942 ? 60.9°
